{"data":{"norad_id":53169,"epoch":"2026-05-25T01:22:32.491200Z","epoch_age_seconds":63321,"freshness":"FRESH","line1":"1 53169U 22083AP  26145.05732050  .00000012  00000+0  18847-4 0  9993","line2":"2 53169  53.2139 166.5523 0001043  75.2152 284.8955 15.08839464213080","mean_motion":15.08839464,"eccentricity":0.0001043,"inclination_deg":53.2139,"raan_deg":166.5523,"arg_perigee_deg":75.2152,"mean_anomaly_deg":284.8955,"bstar":1.8847e-5,"rev_number":21308,"period_min":95.437588580994,"perigee_km":539.02349220671,"apogee_km":540.46656239761,"semimajor_km":6917.8820273022,"source":"CELESTRAK","updated_at":"2026-05-25T13:38:17.323560Z"}}